Simultaneous Nadir Overpasses (SNOs) Predictions

Prediction of SNOs over PacNW region [( 10.00, 139.50) to ( 22.70, 165.60)] between AQUA and NPP Satellites:

Table of predicted SNOs over PacNW region for the next 30.0 days since TLE Epoch: 6/23/2015
Index Date (AQUA) Time (AQUA) AQUA Lat,Lon Date (NPP) Time (NPP) NPP Lat,Lon Distance(km) Time Diff (sec)
1 07/01/2015 02:41:24 17.20, 161.09 07/01/2015 02:39:25 16.95, 159.83 137.05 119
2 07/09/2015 03:29:12 12.15, 149.90 07/09/2015 03:28:37 11.84, 148.33 174.36 35
3 07/17/2015 02:40:30 15.97, 161.48 07/17/2015 02:38:52 15.69, 160.12 149.06 98




NCC Satellite Simultaneous Nadir Overpasses (SNOs) Prediction Service
